Weather in Voropuni

Russia / Tver Oblast     56°44′14″N   34°42′21″E
temp.,
°C
wind,
m/s
gust,
m/s
humid.,
%
clouds,
%
prec.,
mm/h
press.,
hPa
HPBL,
m
4 december, sat
sat400:00−3sw5119089 0.1 9971045
03:00−3sw61391100 0.4 9971211
06:00−5w6128893 0.6 998858
09:00−5w51386100 0.7 1001868
12:00−5w51284100 0.0 1004844
15:00−5w51184100 0.1 1006854
18:00−6w388697 0.0 1008390
21:00−9wsw119633 0.0 101010
5 december, sun
sun500:00−8w019599 0.0 101137
03:00−6ene1295100 0.5 1011139
06:00−6ene2495100 0.4 1011193
09:00−6ene2595100 1.1 1012228
12:00−6ene3491100 0.4 1014286
15:00−7ne359392 0.6 1015286
18:00−9ne369599 0.1 1017248
21:00−10ne3694100 0.3 1018252
6 december, mon
mon600:00−11ne3694100 0.3 1020256
03:00−11ne369485 0.5 1020246
06:00−12ene3694100 0.1 1020251
09:00−11ene3593100 0.3 1021247
12:00−10e2491100 0.3 1021262
15:00−8ene2492100 0.4 1020255
18:00−8ene2695100 0.5 1019204
21:00−6e2596100 1.1 1018147
7 december, tue
tue700:00−4ese2697100 0.4 1016256
03:00−4ese2697100 0.9 1015266
06:00−5e249892 0.5 1013146
09:00−5nne1198100 0.8 101231
12:00−4nnw129573 0.1 1012140
15:00−5nw2596100 0.1 1012161
18:00−8nw269888 0.0 1014117
21:00−10nw379688 0.1 1015159
8 december, wed
wed800:00−13nw279698 0.0 1016140
03:00−14nw289614 0.0 1017173
06:00−16nw27975 0.0 1018133
09:00−16nw269752 0.0 1019114
12:00−12n259160 0.0 1020196
15:00−12n26945 0.0 1020224
18:00−14n389750 0.0 1021180
21:00−15n139969 0.0 102269